Regional Weather Roundup
Issued by NWS

Home | Current Version | Previous Version | Graphics & Text | Print | Product List | Glossary On
Versions: 1 2 3 4 5 6 7 8 9 10 11 12 13 14 15 16 17 18 19 20 21 22 23 24 25 26 27
000
ASUS45 KBOU 030907
RWRCO

WEATHER ROUNDUP FOR COLORADO
NATIONAL WEATHER SERVICE DENVER/BOULDER CO
300 AM MDT TUE MAY 03 2016

NOTE: "FAIR" INDICATES FEW OR NO CLOUDS BELOW 12000 FEET WITH NO
SIGNIFICANT WEATHER AND/OR OBSTRUCTIONS TO VISIBILITY.

COZ001>005-013-030-031-031000-
...NORTHWEST COLORADO...

CITY           SKY/WX    TMP DP  RH WIND       PRES   REMARKS
CRAIG          FAIR      28  24  85 SE5       30.23S WCI  23
HAYDEN         FAIR      36  21  55 E5        30.22F
MEEKER         FAIR      32  25  75 NE7       30.24S WCI  26
MOUNT WERNER   NOT AVBL
STEAMBOAT SPGS FAIR      33  21  62 CALM      30.24S
WALDEN         FAIR      23  18  80 SE7       30.28S WCI  15
$$

COZ006>008-011-031000-
...WEST CENTRAL VALLEYS...

CITY           SKY/WX    TMP DP  RH WIND       PRES   REMARKS
GRAND JUNCTION FAIR      41  36  82 CALM      30.16S
MONTROSE       FAIR      41  31  67 SE8       30.21F
EAGLE          FAIR      34  27  75 E5        30.25S WCI  30
RIFLE          FAIR      39  30  70 CALM      30.20S
DELTA          NOT AVBL
NUCLA          NOT AVBL
$$

COZ017>023-064>068-031000-
...SOUTHWEST COLORADO...

CITY           SKY/WX    TMP DP  RH WIND       PRES   REMARKS
DURANGO        FAIR      32  30  92 CALM      30.20S
CORTEZ         FAIR      33  31  92 NE7       30.19F WCI  27
PAGOSA SPRINGS FAIR      33  33  99 CALM      30.23F
TELLURIDE      FAIR      32  28  87 SE3       30.30F
WOLF CREEK PAS FAIR      23  21  93 N9        30.35F WCI  13
$$

COZ009-010-012-014-032>034-037-058>063-031000-
...CENTRAL COLORADO...

CITY           SKY/WX    TMP DP  RH WIND       PRES   REMARKS
ASPEN          FAIR      31  24  75 SW7       30.24S WCI  24
BUENA VISTA    FAIR      36  24  64 W9        30.23S
COPPER MTN     NOT AVBL
BERTHOUD PASS  FAIR      18   7  62 N22G36    30.30S HAZE    WCI   0
COTTONWOOD PAS FAIR      36  19  51 W9        30.27S
GUNNISON       FAIR      32  23  69 CALM      30.27S
KREMMLING      FAIR      28  21  74 N3        30.26S
LEADVILLE      FAIR      25  17  72 NE8       30.27F WCI  16
MONARCH PASS   FAIR      23  21  93 MISG      30.42F
SALIDA         FAIR      35  28  78 CALM      30.30R
SUNLIGHT       FAIR      32  19  59 N6          N/A  WCI  26
WILKERSON PASS FAIR      27  16  63 N12G22    30.31S WCI  16
$$

COZ069>075-031000-
...SAN LUIS VALLEY/SANGRE DE CRISTO MOUNTAINS...

CITY           SKY/WX    TMP DP  RH WIND       PRES   REMARKS
ALAMOSA        FAIR      32  29  88 CALM      30.19F
LA VETA PASS   FAIR      30  27  86 MISG      30.25S
SAGUACHE       FAIR      36  28  75 N9        30.22S
$$

COZ035-036-038>040-031000-
...NORTHERN COLORADO FRONT RANGE...

CITY           SKY/WX    TMP DP  RH WIND       PRES   REMARKS
DENVER INTL AP MOCLDY    45  27  49 CALM      30.15S
DMNS CITY PARK   N/A     40  29  65 SE8       30.15S
AURORA         FAIR      42  27  55 W2        30.17S
FRONT RANGE AP NOT AVBL
ERIE MUNI ARPT FAIR      38  33  82 CALM      30.15S
BOULDER MUN AP FAIR      43  30  61 SW7       30.15S
CENTENNIAL     FAIR      39  28  64 W7        30.16S
BROOMFIELD     FAIR      46  28  49 N7        30.16F
FORT COLLINS   FAIR      41  27  56 N6        30.16S
LONGMONT       MOCLDY    38  32  79 W3        30.17S
$$

COZ041-046-047-076>085-087-088-031000-
...PIKES PEAK/PALMER DIVIDE AND SOUTHERN FOOTHILLS...

CITY           SKY/WX    TMP DP  RH WIND       PRES   REMARKS
COLO. SPRINGS  FAIR      40  24  53 N5        30.16S
A. F. ACADEMY  FAIR      32  25  74 N8        30.16S WCI  25
SCHRIEVER AFB  NOT AVBL
ELLICOTT       FAIR     N/A N/A N/A N9        30.14S
FALCON         FAIR      41  22  46 N7        30.17S
FORT CARSON    FAIR      38  28  67 NW12      30.13F
LIMON          LGT RAIN  41  33  73 N12       30.14R
MONUMENT HILL  FAIR      34  23  64 NW9       30.19S WCI  26
TRINIDAD       FAIR      38  33  82 W10       30.13S
$$

COZ042>045-048>051-090-091-031000-
...NORTHEAST COLORADO...

CITY           SKY/WX    TMP DP  RH WIND       PRES   REMARKS
GREELEY ARPT   FAIR      43  30  61 NW13      30.14S
AKRON          FAIR      42  33  70 NW12      30.07F
BURLINGTON     MOCLDY    45  32  60 NW13      30.07S
WRAY           NOT AVBL
STERLING       FAIR      41  36  81 W8        30.06S
HOLYOKE        NOT AVBL
FORT MORGAN    FAIR      40  32  73 NW10      30.12R
$$

COZ086-089-092>099-031000-
...SOUTHEAST COLORADO...

CITY           SKY/WX    TMP DP  RH WIND       PRES   REMARKS
PUEBLO         FAIR      41  31  67 W6        30.11F
LA JUNTA       FAIR      43  36  76 W12       30.08S
LAMAR          MOCLDY    45  37  73 SW9       30.04F
SPRINGFIELD      N/A     42  38  85 W3        30.08F
$$




USA.gov is the U.S. government's official web portal to all federal, state and local government web resources and services.